User: anonymous   Login
Location: San Francisco
(37.7750°N, 122.4180°W)
Time: 17:14:28
(UTC-07:00)
Language:

GP-B - Orbit

View from above orbital plane
View from above orbital plane
View from above satellite
View from above satellite

Ground track
Ground track

The orbit data is extracted from the following two-line orbital elements,

1 28230U 04014A   17289.57766417 +.00000173 +00000-0 +21441-4 0  9991
2 28230 089.8375 119.6941 0003341 090.5739 269.5867 14.78571046184236
Epoch (UTC): 16 October 2017 13:51:50
Eccentricity: 0.0003341
inclination: 89.8375°
perigee height: 631 km
apogee height: 636 km
right ascension of ascending node: 119.6941°
argument of perigee: 90.5739°
revolutions per day: 14.78571046
mean anomaly at epoch: 269.5867°
orbit number at epoch: 18423

The dashed part of the orbit path shows where the satellite is in the earth's shadow,  

DLR